Location: Ellingshausen
(50.5460°N, 10.4723°E)
Time: 20:53:50
(UTC+00:00)

Meteor 1-24 Rocket - Pass Details

Date: 18 January 2026
Orbit: 790 x 925 km, 81.3° (Epoch: 16 February)

Event Time Altitude Azimuth Distance (km) Brightness Sun altitude
Rises 05:47:12 0° 346° (NNW) 3,575 6.7 -12.8°
Reaches altitude 10° 05:49:41 10° 345° (NNW) 2,634 6.0 -12.5°
Maximum altitude 05:55:43 75° 261° (W) 961 3.8 -11.5°
Drops below altitude 10° 06:01:40 10° 178° (S) 2,602 6.5 -10.7°
Sets 06:04:07 0° 176° (S) 3,529 7.3 -10.3°
